Regional Weather Roundup
Issued by NWS

Home | Current Version | Previous Version | Text Only | Print | Product List | Glossary Off
Versions: 1 2 3 4 5 6 7 8 9 10 11 12 13 14 15 16 17 18 19 20 21 22 23 24 25 26 27 28 29 30 31 32 33 34 35 36 37 38 39 40 41 42 43 44 45 46 47 48 49 50

000
ASUS43 KMKX 041711
RWRWI

WISCONSIN REGIONAL WEATHER ROUNDUP
NATIONAL WEATHER SERVICE MILWAUKEE/SULLIVAN WI
1200 PM CDT FRI SEP 04 2015

NOTE: "FAIR" INDICATES FEW OR NO CLOUDS BELOW 12,000 FEET WITH NO
SIGNIFICANT WEATHER AND/OR OBSTRUCTIONS TO VISIBILITY.

WIZ001-002-006>008-014>016-023>028-041800-
NORTHWEST WISCONSIN

CITY           SKY/WX    TMP DP  RH WIND       PRES   REMARKS
SUPERIOR ARPT  MOSUNNY   65  61  86 E16       30.00S
ASHLAND        SUNNY     77  69  76 N9        30.02S
HAYWARD        SUNNY     78  65  63 SE8       30.01F HX  80
SIREN          MOSUNNY   80  67  64 SE10      29.98R HX  82
CUMBERLAND     PTSUNNY   73  64  73 SE9       30.00S
RICE LAKE      SUNNY     76  66  70 SE14      30.01F
CHETEK         PTSUNNY   76  68  75 SE10      30.01F
LADYSMITH      SUNNY     79  65  62 S8        30.04F HX  81
EAU CLAIRE     MOSUNNY   80  68  66 SE9       29.99F HX  83
MENOMONIE      SUNNY     82  69  65 E12       29.99S HX  85
NEW RICHMOND   SUNNY     80  69  67 SE10      29.97S HX  83
OSCEOLA        SUNNY     81  70  69 SE13      29.97F HX  84
$$

WIZ003>005-009-010-017-018-041800-
NORTH CENTRAL WISCONSIN

CITY           SKY/WX    TMP DP  RH WIND       PRES   REMARKS
MANITOWISH WTR SUNNY     77  65  65 SE8       30.08S
ARBOR VITAE    SUNNY     80  65  60 SE10G16   30.08S HX  81
WOODRUFF       SUNNY     80  65  60 SE10G16   30.08S HX  81
RHINELANDER    SUNNY     79  63  57 SE12      30.08S HX  80
EAGLE RIVER    SUNNY     78  59  50 SE9       30.08S
LAND O LAKES   SUNNY     79  58  49 E13       30.10R HX  80
PHILLIPS       SUNNY     76  66  69 E7        30.05F
TOMAHAWK       MOSUNNY   77  66  67 S3        30.07S
MEDFORD        MOSUNNY   73  66  79 SE8       30.07S
MERRILL        MOSUNNY   77  67  70 S6        30.07S
$$

WIZ029-030-035-036-043>047-041800-
CENTRAL WISCONSIN

CITY           SKY/WX    TMP DP  RH WIND       PRES   REMARKS
WAUSAU         MOSUNNY   74  65  73 S8        30.05F
MOSINEE        PTSUNNY   72  66  83 SE6       30.07F
MARSHFIELD     CLOUDY    70  63  78 SE9       30.07S
STEVENS POINT  CLOUDY    68  64  87 E7        30.07S
WAUPACA        CLOUDY    71  69  93 CALM      30.06F
WAUTOMA        CLOUDY    72  66  81 E5        30.06F
WISC RAPIDS    CLOUDY    70  63  78 E6        30.07S
CAMP DOUGLAS   PTSUNNY   77  73  88 E8        30.03F
$$

WIZ011>013-019>022-031-037>040-048>050-041800-
NORTHEAST WISCONSIN

CITY           SKY/WX    TMP DP  RH WIND       PRES   REMARKS
ANTIGO         SUNNY     77  65  67 E6        30.08S
SHAWANO        NOT AVBL
OCONTO         MOSUNNY   74  67  79 E6        30.04S
STURGEON BAY   CLOUDY    72  64  78 E3        30.07S
GREEN BAY      PTSUNNY   75  66  73 VRB5      30.05R
MANITOWOC      CLOUDY    72  67  84 MISG      30.05S
APPLETON       CLOUDY    72  64  78 VRB3      30.04F
CLINTONVILLE   MOSUNNY   73  66  78 S3        30.05S
OSHKOSH        CLOUDY    70  64  81 E3        30.05S
$$

WIZ032>034-041-042-053>061-041800-
SOUTHWEST WISCONSIN

CITY           SKY/WX    TMP DP  RH WIND       PRES   REMARKS
LA CROSSE      MOSUNNY   83  70  64 S6        29.99S HX  87
SPARTA         PTSUNNY   80  65  61 E8        30.02F HX  82
VIROQUA        MOSUNNY   81  70  70 S6        30.03F HX  84
BOSCOBEL       SUNNY     85  70  60 VRB3      30.00F HX  89
PRAIRIE DU CHI SUNNY     83  68  61 E5        29.99F HX  86
PLATTEVILLE    SUNNY     82  74  77 SE6       30.03S HX  88
$$

WIZ056-057-062-063-064-067-068-041800-
SOUTH CENTRAL WISCONSIN

CITY           SKY/WX    TMP DP  RH WIND       PRES   REMARKS
REEDSBURG      PTSUNNY   77  68  72 E3        30.03F
BARABOO/DELLS  MOSUNNY   75  65  70 SE3       30.04F
LONE ROCK      MOSUNNY   82  70  66 E6        30.02F HX  86
MINERAL POINT  SUNNY     82  72  69 SE7       30.04F HX  87
MADISON        PTSUNNY   75  66  73 CALM      30.04S
MIDDLETON      MOSUNNY   80  67  64 E6        30.04F HX  82
WATERTOWN      MOSUNNY   72  69  89 CALM      30.05F
MONROE         MOSUNNY   81  70  69 SE6       30.04S HX  84
JANESVILLE     PTSUNNY   81  68  65 CALM      30.03F HX  83
$$

WIZ051-052-058>065-066-070>072-041800-
SOUTHEAST WISCONSIN

CITY           SKY/WX    TMP DP  RH WIND       PRES   REMARKS
MILWAUKEE      MOSUNNY   74  65  73 NE6       30.04F
WAUKESHA       MOSUNNY   73  64  73 CALM      30.06S
MILWAUKEE/TIMM CLOUDY    72  63  73 CALM      30.06S
RACINE         PTSUNNY   76  64  66 NE7       30.06F
BURLINGTON     MOSUNNY   74  64  72 NE3       30.04F
KENOSHA        MOSUNNY   75  66  73 NW5       30.05F
FOND DU LAC    CLOUDY    72  66  81 VRB3      30.05F
SHEBOYGAN      CLOUDY    70  66  87 E5        30.05S
WEST BEND      CLOUDY    70  63  78 CALM      30.05F
JUNEAU         CLOUDY    73  65  76 E5        30.06F
$$

LSZ147-162-041800-
LAKE SUPERIOR

STATION/POSITION TIME  TEMP    WIND        PRES    WAVE
                       AIR SEA DIR/SP/G            HT/PER
                 (UTC) (F)     (DEG/KT/KT) (MB)    (FT/S)
W MID LAKE BUOY  1650   61 57   70/ 10/ 12 1017.6R   1
DEVILS ISLAND    1700   62      60/  7/  8 1017.4R
PORT WING        1600   56      30/ 15/ 17 1015.9F
SAXON HARBOR     1640   67        CALM     1016.3S
$$

LMZ867-665-643>646-041800-
LAKE MICHIGAN

STATION/POSITION TIME  TEMP    WIND        PRES    WAVE
                       AIR SEA DIR/SP/G            HT/PER
                 (UTC) (F)     (DEG/KT/KT) (MB)    (FT/S)
CHAMBERS ISLAND  1600   69      10/  8/  9 1017.6S
S GREEN BAY BUOY 1700   68 67   10/  8/ 10 1018.8
N MID LAKE BUOY  1650   68 66  130/  6/  8 1017.2R   2/ 3
NORTHPORT PIER   1600   71      40/  2/  4 1017.3S
SISTER BAY       1611   78     140/  8/ 10   N/A
ALGOMA LAKESHORE 1614             CALM       N/A
KEWAUNEE LAKESHO 1600   67      30/  3/  5 1016.4S
SHEBOYGAN LAKESH 1700   63     360/  5/  6 1017.7F
PORT WASHINGTON  1600   63      CALM  /  2 1018.3R
ATWATER BUOY     1700   63     320/  2/  4 1018.9F
MILWAUKEE LAKESH 1610   69      10/  5/  6   N/A
S MID LAKE BUOY  1650   68 71  290/  6/  8 1016.9R
KENOSHA   LAKESH 1700   68     100/  5/  7 1016.9F
$$

TC  - TEMPERATURE IN CELSIUS
VSB - VISIBILITY IN STATUTE MILES
WCI - WIND CHILL INDEX
HX  - HEAT INDEX




USA.gov is the U.S. government's official web portal to all federal, state and local government web resources and services.